Hourly Weather Sofia

Today, 11 July, Saturday

Time Temperature Precipitation Wind Pressure Humidity
00:00 +17°C° 0 mm 2 mps 712 mmHg 78%
01:00 +18°C° 0 mm 1 mps 712 mmHg 80%
02:00 +16°C° 0 mm 1 mps 712 mmHg 83%
03:00 +16°C° 0 mm 1 mps 712 mmHg 84%
04:00 +15°C° 0 mm 1 mps 711 mmHg 86%
05:00 +15°C° 0 mm 1 mps 711 mmHg 87%
06:00 +18°C° 0 mm 1 mps 712 mmHg 81%
07:00 +20°C° 0 mm 1 mps 712 mmHg 74%
08:00 +22°C° 0 mm 1 mps 712 mmHg 68%
09:00 +23°C° 0 mm 1 mps 712 mmHg 62%
10:00 +25°C° 0 mm 2 mps 712 mmHg 56%
11:00 +27°C° 0 mm 2 mps 712 mmHg 50%
12:00 +28°C° 0 mm 2 mps 712 mmHg 48%
13:00 +28°C° 0 mm 2 mps 712 mmHg 46%
14:00 +29°C° 0 mm 2 mps 711 mmHg 44%
15:00 +29°C° 0 mm 2 mps 711 mmHg 46%
16:00 +29°C° 0 mm 2 mps 711 mmHg 47%
17:00 +28°C° 0 mm 2 mps 710 mmHg 49%
18:00 +26°C° 0 mm 2 mps 710 mmHg 55%
19:00 +24°C° 0 mm 2 mps 710 mmHg 62%
20:00 +22°C° 0 mm 1 mps 710 mmHg 69%
21:00 +21°C° 0 mm 1 mps 710 mmHg 70%
22:00 +21°C° 0 mm 1 mps 710 mmHg 71%
23:00 +20°C° 0 mm 1 mps 710 mmHg 72%

Tomorrow, 12 July, Sunday

Time Temperature Precipitation Wind Pressure Humidity
00:00 +19°C° 0 mm 1 mps 710 mmHg 74%
01:00 +19°C° 0 mm 1 mps 710 mmHg 77%
02:00 +16°C° 0 mm 0 mps 710 mmHg 79%
03:00 +16°C° 0 mm 0 mps 710 mmHg 80%
04:00 +16°C° 0 mm 0 mps 710 mmHg 81%
05:00 +15°C° 0 mm 0 mps 710 mmHg 82%
06:00 +19°C° 0 mm 1 mps 711 mmHg 79%
07:00 +20°C° 0 mm 2 mps 711 mmHg 75%
08:00 +21°C° 0 mm 3 mps 712 mmHg 71%
09:00 +22°C° 0 mm 3 mps 712 mmHg 69%
10:00 +24°C° 0 mm 3 mps 712 mmHg 66%
11:00 +25°C° 0 mm 4 mps 712 mmHg 63%
12:00 +25°C° 0 mm 4 mps 712 mmHg 63%
13:00 +25°C° 0 mm 4 mps 712 mmHg 63%
14:00 +26°C° 0 mm 4 mps 712 mmHg 63%
15:00 +25°C° 0 mm 4 mps 711 mmHg 65%
16:00 +23°C° 0 mm 4 mps 711 mmHg 68%
17:00 +22°C° 0 mm 4 mps 711 mmHg 70%
18:00 +21°C° 0 mm 4 mps 711 mmHg 74%
19:00 +19°C° 0 mm 3 mps 711 mmHg 77%
20:00 +18°C° 0 mm 2 mps 711 mmHg 81%
21:00 +17°C° 0 mm 2 mps 711 mmHg 83%
22:00 +16°C° 0 mm 2 mps 711 mmHg 85%
23:00 +15°C° 0 mm 2 mps 712 mmHg 86%

Day after tomorrow, 13 July, Monday

Time Temperature Precipitation Wind Pressure Humidity
00:00 +14°C° 0 mm 2 mps 712 mmHg 86%
01:00 +14°C° 0 mm 2 mps 712 mmHg 87%
02:00 +13°C° 0 mm 2 mps 712 mmHg 87%
03:00 +13°C° 0 mm 2 mps 711 mmHg 88%
04:00 +12°C° 0 mm 2 mps 711 mmHg 89%
05:00 +10°C° 0 mm 2 mps 711 mmHg 90%
06:00 +13°C° 0 mm 2 mps 711 mmHg 84%
07:00 +14°C° 0 mm 2 mps 712 mmHg 78%
08:00 +14°C° 0 mm 3 mps 712 mmHg 72%
09:00 +17°C° 0 mm 3 mps 712 mmHg 67%
10:00 +18°C° 0 mm 3 mps 712 mmHg 62%
11:00 +20°C° 0 mm 4 mps 712 mmHg 57%
12:00 +20°C° 0 mm 4 mps 712 mmHg 56%
13:00 +21°C° 0 mm 4 mps 712 mmHg 56%
14:00 +22°C° 0 mm 3 mps 712 mmHg 55%
15:00 +21°C° 0 mm 3 mps 712 mmHg 57%
16:00 +21°C° 0 mm 3 mps 712 mmHg 59%
17:00 +21°C° 0 mm 3 mps 711 mmHg 61%
18:00 +20°C° 0 mm 3 mps 711 mmHg 69%
19:00 +18°C° 0 mm 2 mps 711 mmHg 76%
20:00 +16°C° 0 mm 1 mps 711 mmHg 83%
21:00 +15°C° 0 mm 1 mps 711 mmHg 85%
22:00 +15°C° 0 mm 1 mps 712 mmHg 86%
23:00 +14°C° 0 mm 1 mps 712 mmHg 88%

14 July, Tuesday

Time Temperature Precipitation Wind Pressure Humidity
00:00 +13°C° 0 mm 1 mps 712 mmHg 88%
01:00 +13°C° 0 mm 1 mps 712 mmHg 89%
02:00 +13°C° 0 mm 1 mps 712 mmHg 89%
03:00 +11°C° 0 mm 0 mps 712 mmHg 89%
04:00 +11°C° 0 mm 0 mps 711 mmHg 90%
05:00 +11°C° 0 mm 0 mps 711 mmHg 90%
06:00 +14°C° 0 mm 1 mps 712 mmHg 82%
07:00 +16°C° 0 mm 1 mps 712 mmHg 75%
08:00 +19°C° 0 mm 1 mps 712 mmHg 67%
09:00 +20°C° 0 mm 1 mps 712 mmHg 62%
10:00 +21°C° 0 mm 2 mps 712 mmHg 56%
11:00 +23°C° 0 mm 2 mps 712 mmHg 51%
12:00 +24°C° 0 mm 2 mps 712 mmHg 48%
13:00 +25°C° 0 mm 2 mps 712 mmHg 46%
14:00 +25°C° 0 mm 2 mps 712 mmHg 43%
15:00 +25°C° 0 mm 2 mps 711 mmHg 44%
16:00 +25°C° 0 mm 2 mps 711 mmHg 45%
17:00 +25°C° 0 mm 1 mps 711 mmHg 46%
18:00 +23°C° 0 mm 1 mps 711 mmHg 54%
19:00 +21°C° 0 mm 1 mps 710 mmHg 62%
20:00 +19°C° 0 mm 1 mps 710 mmHg 69%
21:00 +18°C° 0 mm 1 mps 710 mmHg 71%
22:00 +18°C° 0 mm 1 mps 711 mmHg 72%
23:00 +16°C° 0 mm 1 mps 711 mmHg 73%

15 July, Wednesday

Time Temperature Precipitation Wind Pressure Humidity
00:00 +15°C° 0 mm 1 mps 711 mmHg 75%
01:00 +15°C° 0 mm 1 mps 711 mmHg 77%
02:00 +14°C° 0 mm 1 mps 711 mmHg 78%
03:00 +14°C° 0 mm 1 mps 711 mmHg 80%
04:00 +13°C° 0 mm 1 mps 711 mmHg 82%
05:00 +13°C° 0 mm 1 mps 710 mmHg 83%
06:00 +15°C° 0 mm 1 mps 711 mmHg 77%
07:00 +18°C° 0 mm 1 mps 711 mmHg 70%
08:00 +20°C° 0 mm 1 mps 712 mmHg 64%
09:00 +22°C° 0 mm 1 mps 712 mmHg 59%
10:00 +24°C° 0 mm 1 mps 712 mmHg 54%
11:00 +26°C° 0 mm 1 mps 712 mmHg 49%
12:00 +27°C° 0 mm 1 mps 712 mmHg 47%
13:00 +27°C° 0 mm 1 mps 711 mmHg 45%
14:00 +28°C° 0 mm 1 mps 711 mmHg 42%
15:00 +27°C° 0 mm 1 mps 711 mmHg 46%
16:00 +27°C° 0 mm 1 mps 710 mmHg 49%
17:00 +26°C° 0 mm 1 mps 710 mmHg 53%
18:00 +24°C° 0.1 mm 1 mps 710 mmHg 60%
19:00 +22°C° 0.1 mm 1 mps 710 mmHg 66%
20:00 +21°C° 0.1 mm 1 mps 710 mmHg 73%
21:00 +20°C° 0 mm 1 mps 710 mmHg 75%
22:00 +19°C° 0 mm 1 mps 710 mmHg 76%
23:00 +16°C° 0 mm 0 mps 710 mmHg 78%

16 July, Thursday

Time Temperature Precipitation Wind Pressure Humidity
00:00 +16°C° 0 mm 0 mps 710 mmHg 79%
01:00 +16°C° 0 mm 0 mps 710 mmHg 80%
02:00 +15°C° 0 mm 0 mps 710 mmHg 80%
03:00 +15°C° 0 mm 0 mps 710 mmHg 82%
04:00 +14°C° 0 mm 0 mps 710 mmHg 83%
05:00 +14°C° 0 mm 0 mps 710 mmHg 84%
06:00 +16°C° 0 mm 0 mps 710 mmHg 77%
07:00 +18°C° 0 mm 0 mps 711 mmHg 71%
08:00 +20°C° 0 mm 0 mps 711 mmHg 65%
09:00 +24°C° 0 mm 1 mps 711 mmHg 57%
10:00 +26°C° 0 mm 1 mps 711 mmHg 50%
11:00 +27°C° 0 mm 1 mps 711 mmHg 42%
12:00 +28°C° 0 mm 2 mps 711 mmHg 41%
13:00 +28°C° 0 mm 2 mps 711 mmHg 40%
14:00 +29°C° 0 mm 2 mps 711 mmHg 38%
15:00 +28°C° 0 mm 3 mps 710 mmHg 42%
16:00 +28°C° 0 mm 3 mps 710 mmHg 45%
17:00 +27°C° 0 mm 3 mps 710 mmHg 48%
18:00 +25°C° 0 mm 2 mps 710 mmHg 54%
19:00 +23°C° 0 mm 1 mps 709 mmHg 60%
20:00 +21°C° 0 mm 1 mps 709 mmHg 66%
21:00 +21°C° 0 mm 1 mps 709 mmHg 67%
22:00 +20°C° 0 mm 1 mps 710 mmHg 68%
23:00 +19°C° 0 mm 1 mps 710 mmHg 69%
Show more